Lake Talquin Weather Center

Moon Phase Calendar



Lake Talquin Water Level
Online Cameras

 


      

Current Conditions in Midway
2/26/2024 5:23:07 AM

38°F
Feels Like 38
Clear
Humidity
93%
Pressure
30.18"
Wind
0
Dew Point
36°F
UV Index
0/10 (Low)
Visibility
6 mi

Hourly Forecast

Date & Time Mon, Feb 26
5:00 AM
Mon, Feb 26
6:00 AM
Mon, Feb 26
7:00 AM
Mon, Feb 26
8:00 AM
Mon, Feb 26
9:00 AM
Mon, Feb 26
10:00 AM
Mon, Feb 26
11:00 AM
Mon, Feb 26
12:00 PM
Mon, Feb 26
1:00 PM
Mon, Feb 26
2:00 PM
Mon, Feb 26
3:00 PM
Mon, Feb 26
4:00 PM
Mon, Feb 26
5:00 PM
Mon, Feb 26
6:00 PM
Mon, Feb 26
7:00 PM
Mon, Feb 26
8:00 PM
Mon, Feb 26
9:00 PM
Mon, Feb 26
10:00 PM
Mon, Feb 26
11:00 PM
Tue, Feb 27
12:00 AM
Tue, Feb 27
1:00 AM
Tue, Feb 27
2:00 AM
Tue, Feb 27
3:00 AM
Tue, Feb 27
4:00 AM
Tue, Feb 27
5:00 AM
Tue, Feb 27
6:00 AM
Tue, Feb 27
7:00 AM
Tue, Feb 27
8:00 AM
Tue, Feb 27
9:00 AM
Tue, Feb 27
10:00 AM
Tue, Feb 27
11:00 AM
Tue, Feb 27
12:00 PM
Tue, Feb 27
1:00 PM
Tue, Feb 27
2:00 PM
Tue, Feb 27
3:00 PM
Tue, Feb 27
4:00 PM
Tue, Feb 27
5:00 PM
Tue, Feb 27
6:00 PM
Tue, Feb 27
7:00 PM
Tue, Feb 27
8:00 PM
Tue, Feb 27
9:00 PM
Tue, Feb 27
10:00 PM
Tue, Feb 27
11:00 PM
Wed, Feb 28
12:00 AM
Wed, Feb 28
1:00 AM
Wed, Feb 28
2:00 AM
Wed, Feb 28
3:00 AM
Wed, Feb 28
4:00 AM
Condition
Clear

Clear

Clear

Clear

Clear

Clear

Clear

Clear

Clear

Clear

Clear

Clear

Clear

Clear

Clear

Clear

Clear

Clear

Clear

Clear

Clouds

Clear

Clear

Clouds

Clouds

Clouds

Clouds

Clouds

Clouds

Clouds

Clouds

Clouds

Clouds

Clouds

Clouds

Clouds

Clouds

Clouds

Clouds

Clouds

Clouds

Clouds

Clouds

Clouds

Clouds

Clouds

Clouds

Clouds
Temperature 38°F40°F42°F46°F54°F64°F68°F71°F74°F75°F75°F75°F72°F67°F61°F58°F56°F56°F56°F56°F56°F56°F56°F56°F56°F56°F56°F58°F64°F69°F73°F75°F75°F75°F74°F73°F71°F67°F63°F61°F59°F59°F59°F59°F59°F59°F59°F59°F
Feels Like 38°F38°F42°F45°F52°F62°F66°F69°F72°F73°F74°F73°F71°F65°F60°F57°F56°F56°F56°F56°F56°F56°F56°F56°F56°F55°F56°F58°F64°F68°F72°F74°F75°F74°F73°F72°F70°F66°F63°F61°F59°F60°F60°F60°F59°F59°F59°F59°F
Cloudiness 0%0%0%0%0%0%0%0%0%0%0%0%1%1%3%0%1%1%2%3%12%7%10%11%15%25%28%27%29%29%26%24%26%78%89%93%82%67%56%29%16%17%20%22%24%51%76%70%
Visibility 6 mi6 mi6 mi6 mi6 mi6 mi6 mi6 mi6 mi6 mi6 mi6 mi6 mi6 mi6 mi6 mi6 mi6 mi6 mi6 mi6 mi6 mi6 mi6 mi6 mi6 mi6 mi6 mi6 mi6 mi6 mi6 mi6 mi6 mi6 mi6 mi6 mi6 mi6 mi6 mi6 mi6 mi6 mi6 mi6 mi6 mi6 mi6 mi
Precipitation 0%0%0%0%0%0%0%0%0%0%0%0%0%0%0%0%0%0%0%0%0%0%0%0%0%0%0%0%0%0%0%0%0%0%0%0%0%0%0%0%0%0%0%0%0%0%0%0%
Humidity 93%88%83%77%61%44%33%26%23%22%23%25%33%45%61%78%90%96%97%98%97%97%97%97%97%97%96%91%74%57%49%44%41%39%38%39%45%57%72%86%96%98%98%98%97%97%97%98%
Dew Point 36°F37°F37°F39°F41°F41°F38°F35°F34°F34°F35°F37°F41°F45°F47°F51°F53°F55°F55°F55°F55°F55°F55°F55°F55°F54°F54°F55°F55°F53°F52°F51°F50°F49°F47°F46°F48°F51°F54°F56°F58°F58°F59°F58°F58°F58°F58°F58°F
Pressure 30.18"30.18"30.18"30.18"30.21"30.21"30.21"30.18"30.15"30.12"30.12"30.09"30.09"30.09"30.09"30.12"30.12"30.12"30.12"30.12"30.12"30.09"30.09"30.09"30.09"30.09"30.09"30.12"30.12"30.12"30.12"30.09"30.09"30.06"30.06"30.03"30.03"30.06"30.06"30.09"30.09"30.09"30.09"30.06"30.03"30.03"30.03"30.03"
Wind Speed 2.1 mph3 mph3 mph3.2 mph4.1 mph5.2 mph5.8 mph5.5 mph5.7 mph6.2 mph6.6 mph7.4 mph7.7 mph8.3 mph7.6 mph6 mph4.9 mph5 mph4.6 mph4.6 mph4.6 mph4.8 mph4.6 mph5.4 mph4.8 mph5.2 mph5.6 mph5 mph8.2 mph9.8 mph11 mph11.7 mph12.5 mph12.6 mph12.7 mph12.3 mph10.8 mph9.7 mph7.6 mph6.2 mph6.6 mph6.5 mph7.1 mph7.3 mph6.5 mph6.7 mph6 mph6 mph
Wind
Direction
171°
S
165°
SSE
166°
SSE
153°
SSE
168°
SSE
175°
S
188°
S
198°
SSW
204°
SSW
205°
SSW
204°
SSW
197°
SSW
188°
S
180°
S
176°
S
181°
S
173°
S
170°
S
179°
S
167°
SSE
173°
S
178°
S
181°
S
177°
S
174°
S
171°
S
171°
S
167°
SSE
177°
S
179°
S
177°
S
180°
S
185°
S
184°
S
186°
S
188°
S
184°
S
186°
S
180°
S
175°
S
164°
SSE
171°
S
175°
S
173°
S
179°
S
187°
S
193°
SSW
182°
S

Daily Forecast

Date High Low Precip. Humidity
Today
Feb 26

Clear
75 °F
38 °F
0%
26%
Tuesday
Feb 27

Clouds
75 °F
56 °F
0%
44%
Wednesday
Feb 28

Rain
79 °F
59 °F
32%
51%
Thursday
Feb 29

Clouds
67 °F
51 °F
3%
37%
Friday
Mar 1

Rain
72 °F
55 °F
77%
69%
Saturday
Mar 2

Rain
71 °F
62 °F
100%
89%
Sunday
Mar 3

Clouds
79 °F
58 °F
13%
49%
Monday
Mar 4

Rain
71 °F
62 °F
90%
81%
Tuesday
Mar 5

Rain
65 °F
50 °F
100%
97%
Wednesday
Mar 6

Clear
68 °F
40 °F
0%
39%
Thursday
Mar 7

Clouds
72 °F
49 °F
0%
52%
Friday
Mar 8

Clouds
70 °F
57 °F
6%
61%
Saturday
Mar 9

Rain
72 °F
59 °F
100%
91%
Sunday
Mar 10

Clouds
62 °F
50 °F
0%
44%
Monday
Mar 11

Clouds
59 °F
40 °F
0%
33%
Tuesday
Mar 12

Clear
64 °F
39 °F
0%
28%

Temperature 8-14 Day Outlook



Precipitation 8-14 Day Outlook




Quick Links
Lake Talquin News
Lake Talquin Photos
Lake Talquin Videos




About Us
Contact Us
Site Map
Search Site
Advertise With Us
   
Talquin.USLakes.info
THE LAKE TALQUIN WEBSITE

Copyright 2024, Lakes Online
Privacy    |    Legal